Dewpoint
48 49 49 47 47 47 47 46 46 47 46 46 47 47 46 46 47 49 50 49 50 51 51 51 52 52 53 52 52 53 51 44 42 40 39 38 43 46 47 51 51 56 55 53 52 45 38 36 31 29 32 26 25 23 23 26 28 23 22 19 18 15 11 9 6 5 6 4 5 6 6 5 4 5 5 12 43 55 60 60 62 63 63 64 64 64 64 64
48 48 49 48 48 47 47 47 47 47 46 46 46 46 46 46 46 48 50 50 49 50 51 51 51 52 52 52 52 52 47 42 41 40 38 43 50 50 50 50 51 52 52 49 50 43 39 36 30 29 28 27 30 21 25 24 27 21 22 19 13 16 14 8 7 7 6 6 6 5 9 5 4 6 8 6 12 51 53 60 62 62 63 64 64 64 64 64
48 48 48 48 48 48 48 47 48 48 47 46 46 46 45 45 46 47 48 49 49 50 50 51 51 51 51 52 52 52 45 41 39 34 33 50 54 55 56 54 53 52 48 43 45 42 38 35 29 28 27 26 27 22 24 22 25 24 21 16 15 16 15 11 9 7 6 6 6 6 8 9 8 12 13 13 15 48 53 58 60 62 62 63 63 63 63 63
48 48 48 48 48 48 48 47 48 48 48 47 47 47 47 45 46 47 46 47 49 49 49 50 50 51 51 51 52 50 43 40 31 32 32 51 53 53 54 59 57 53 50 47 42 41 38 33 30 28 29 25 25 27 26 24 23 25 23 18 15 15 14 13 12 10 10 8 9 7 12 8 7 10 12 8 9 19 51 59 60 61 62 63 63 63 63 63
48 48 48 49 48 48 48 48 48 47 48 48 47 48 47 47 46 45 46 47 47 48 49 49 50 50 51 51 52 49 41 30 26 37 49 52 52 51 51 50 58 52 49 45 43 37 33 33 30 29 28 24 24 24 26 27 27 26 22 22 17 16 14 14 12 12 11 13 11 10 10 8 8 8 12 12 9 12 23 47 61 63 63 63 63 63 63 63
48 48 48 48 48 48 48 48 48 47 48 48 47 47 48 47 47 46 46 46 47 47 48 48 49 50 50 51 51 48 38 26 36 35 50 51 52 49 51 50 57 50 49 44 35 33 32 32 30 27 27 26 23 22 23 26 29 25 26 25 22 14 16 17 13 12 11 11 10 10 9 9 11 10 14 11 12 14 34 63 64 64 64 64 64 64 63 63
48 48 48 48 48 48 47 48 48 48 47 48 48 47 47 47 47 46 46 47 46 46 46 47 48 49 49 49 48 46 39 35 38 38 49 50 51 48 50 47 58 48 45 42 37 34 31 31 30 26 29 26 24 22 22 24 26 27 24 25 24 22 14 15 15 13 10 10 10 11 14 9 11 7 13 41 58 62 64 64 64 64 64 64 64 64 63 63
48 49 48 48 48 48 48 48 48 47 47 47 48 48 48 48 47 47 46 46 45 45 45 46 47 48 49 46 43 40 40 38 40 40 47 50 43 43 44 37 44 44 39 37 35 33 31 30 27 26 25 23 22 22 22 21 23 25 26 27 25 21 22 19 16 13 12 11 11 10 8 7 9 10 30 54 61 63 64 64 64 64 64 63 63 62 62 62
48 48 48 48 48 48 48 48 48 47 47 47 48 48 48 47 47 47 47 46 45 45 45 45 46 46 48 46 42 38 36 39 40 40 40 40 40 40 39 37 37 42 40 38 36 34 31 30 29 26 22 24 25 27 22 20 19 21 25 26 25 24 19 19 20 18 16 15 12 10 9 10 9 15 43 58 61 63 63 64 63 63 62 62 61 61 61 62
48 48 48 48 48 48 47 48 48 48 48 47 47 48 48 47 47 47 47 46 45 45 45 45 45 46 45 44 40 34 35 38 39 41 41 41 40 39 39 38 38 36 39 37 35 34 31 29 29 28 27 24 26 25 24 19 18 21 22 24 24 24 21 19 17 18 18 17 14 11 11 10 11 13 12 61 61 62 62 63 63 62 61 61 61 61 61 61
47 48 47 47 48 48 48 47 48 47 47 48 48 47 47 47 47 46 46 46 46 46 44 45 45 45 43 40 36 33 38 38 38 41 40 40 39 38 38 38 38 37 35 34 34 34 32 31 28 32 25 23 24 23 25 23 18 16 20 21 21 21 19 17 16 15 17 16 15 13 12 12 11 13 9 60 61 62 62 62 62 62 61 60 60 60 60 61
47 47 47 47 47 47 48 47 47 47 47 48 47 48 48 47 47 47 46 46 47 45 46 45 45 44 44 42 37 35 39 39 40 40 40 39 39 39 39 39 38 37 36 34 34 33 33 31 28 27 21 24 21 25 23 23 22 18 15 13 17 19 19 18 16 15 16 15 15 13 13 11 11 10 33 61 61 61 61 61 61 61 61 60 60 60 60 60
48 48 47 47 48 47 48 48 48 47 47 47 48 48 47 46 47 47 46 46 46 46 45 45 44 45 42 34 33 36 37 38 38 40 40 40 39 39 39 39 38 38 37 36 34 33 32 32 30 28 27 29 25 21 23 24 22 17 14 13 13 12 15 18 17 15 13 14 11 11 10 9 10 17 59 61 61 60 60 60 60 60 60 60 59 59 60 60
47 48 48 48 48 48 48 48 48 48 48 48 48 47 47 47 48 47 47 45 46 46 46 46 44 43 41 35 35 37 37 37 38 36 35 36 35 34 36 37 37 37 37 36 35 34 32 30 31 29 29 28 26 26 24 23 24 10 11 12 12 11 10 14 17 14 12 14 11 10 10 11 13 53 59 60 60 60 59 59 60 59 59 60 60 59 60 60
48 48 48 48 48 48 48 48 47 47 47 47 47 47 47 47 48 48 47 46 46 45 45 45 45 42 37 33 35 35 44 40 36 35 36 36 36 37 37 37 37 37 37 36 34 32 30 29 29 28 26 27 26 24 23 20 16 11 10 10 10 11 7 10 16 13 12 13 12 11 11 10 12 46 58 60 60 59 59 59 59 59 59 59 60 59 60 60
48 48 48 48 48 48 48 48 47 47 47 47 47 47 47 47 48 48 48 46 45 44 43 43 43 41 36 30 29 38 34 34 35 40 41 40 39 38 38 37 37 37 36 34 32 31 29 27 26 26 23 24 23 22 22 19 19 12 9 15 10 9 8 7 8 13 12 11 14 10 10 12 12 40 57 59 59 59 59 59 59 59 59 59 60 59 60 60
48 48 48 48 48 48 48 47 47 49 49 47 46 46 47 47 48 48 48 47 43 45 43 40 41 43 30 34 35 30 27 31 34 34 35 41 40 39 38 37 36 35 34 32 29 27 27 26 28 26 23 21 21 21 20 19 19 17 10 13 11 7 6 7 6 9 11 11 10 11 10 13 19 51 56 56 58 58 58 58 58 58 58 59 60 60 60 60
48 48 48 47 47 48 47 47 47 47 48 47 46 46 45 47 47 46 44 45 44 43 42 43 40 38 32 36 32 30 32 31 30 31 30 35 40 39 38 36 36 34 31 26 27 25 26 24 24 23 23 22 21 20 19 14 17 18 11 12 10 6 6 7 6 6 10 10 9 11 11 12 49 51 54 55 57 58 58 58 58 58 58 59 59 59 59 60
48 47 48 48 48 48 49 48 48 48 47 47 46 46 46 46 42 40 40 42 38 35 31 34 36 25 10 29 32 31 30 31 30 29 28 28 38 38 38 37 35 31 27 23 23 24 24 25 25 24 20 20 20 20 19 13 15 13 13 12 11 6 4 6 6 6 9 10 8 11 10 22 50 49 53 53 56 57 58 58 58 58 58 58 59 59 59 60
47 47 48 49 49 48 48 48 48 48 47 46 43 42 37 31 30 28 40 39 36 31 30 30 36 32 33 30 28 28 29 31 29 29 28 29 38 37 36 36 34 30 25 22 22 23 23 22 21 20 19 17 20 20 20 19 12 12 11 10 7 5 7 6 5 6 9 9 9 11 14 31 49 49 52 53 54 55 57 57 57 58 58 58 58 59 59 60
47 47 48 48 49 48 48 47 47 47 47 45 43 38 31 32 29 27 34 33 34 35 33 32 35 35 34 31 31 29 29 30 30 29 30 33 31 36 34 34 32 28 26 23 21 23 23 22 22 21 19 17 19 21 19 18 18 11 10 9 8 6 5 6 4 4 9 13 10 12 26 41 48 50 51 53 54 55 56 57 57 57 58 58 58 58 59 60
47 47 48 47 47 48 47 47 47 47 47 42 41 37 36 35 35 39 38 30 31 33 34 34 33 32 33 33 33 32 31 30 29 29 30 31 31 32 32 32 29 26 24 23 23 22 21 21 22 22 23 23 22 21 18 18 17 13 12 11 8 7 7 7 8 9 9 9 14 14 25 39 47 50 51 52 52 54 57 57 58 57 57 57 57 58 58 59
47 47 47 47 47 47 47 47 47 47 42 39 39 38 37 38 40 45 40 36 32 33 32 32 32 32 32 32 32 32 30 29 28 28 29 31 32 31 31 30 27 25 22 22 21 21 20 21 22 22 24 23 21 19 17 16 16 15 12 12 11 9 6 6 8 8 8 10 11 25 28 46 48 50 51 51 52 53 55 56 57 58 57 57 57 58 58 59
47 47 47 47 48 48 47 47 47 42 39 38 38 37 38 40 42 42 37 30 29 29 31 31 31 30 30 29 30 31 29 27 28 26 29 28 30 32 30 29 26 24 22 22 21 19 19 21 22 23 23 21 20 17 16 17 16 19 11 12 9 9 6 7 7 9 7 30 31 42 44 43 47 48 49 50 53 53 53 56 57 57 57 57 58 58 59 59
47 47 47 47 47 48 47 47 40 40 41 40 38 39 42 42 44 43 35 30 30 30 32 30 30 29 29 31 31 29 29 28 27 27 30 27 27 30 27 28 25 23 23 21 21 19 18 19 22 22 22 21 17 15 16 17 16 15 14 10 10 9 9 9 8 6 7 8 37 31 28 35 45 45 48 47 51 52 53 54 55 56 56 57 57 57 59 60
47 46 47 47 47 47 47 39 35 40 40 38 38 42 41 43 47 42 34 26 20 21 26 20 27 24 30 26 28 26 26 24 27 27 28 26 30 28 26 24 24 22 23 21 20 21 19 19 21 21 22 22 17 15 15 15 16 15 13 11 11 11 10 9 7 5 5 5 8 29 11 30 45 45 46 46 51 52 53 54 55 55 56 56 57 58 58 59
47 46 46 47 47 48 43 37 41 42 38 36 42 42 41 43 45 43 26 20 16 25 24 31 26 22 26 24 26 25 18 14 19 25 28 30 27 28 22 20 21 21 22 23 20 17 18 18 20 21 21 21 20 16 12 14 13 12 12 11 11 10 9 8 5 6 11 13 14 28 28 36 39 43 46 47 51 52 52 53 54 55 56 56 57 58 59 59
45 45 46 46 47 47 44 44 42 39 38 38 41 41 42 43 42 40 24 7 6 32 27 30 25 31 23 26 26 22 20 23 17 19 25 29 29 26 24 19 18 17 20 20 16 19 19 17 18 20 20 20 20 19 11 13 12 10 12 12 11 11 10 7 7 10 12 10 6 24 39 31 34 39 46 49 50 51 51 52 53 54 55 56 57 58 58 60
45 45 46 46 47 48 46 44 42 39 41 41 42 42 44 43 39 29 19 7 26 27 38 29 41 31 27 29 23 21 18 25 20 22 24 27 27 24 22 23 18 16 18 18 17 18 17 17 18 21 20 19 17 14 9 10 10 9 11 12 12 11 11 8 10 7 12 7 8 20 31 26 32 37 43 47 49 50 51 52 53 54 55 56 57 58 59 60
45 45 45 46 47 45 41 43 41 42 42 43 43 43 44 40 29 20 10 4 31 20 31 32 31 26 32 29 22 22 20 19 22 22 24 24 24 25 24 24 20 16 16 18 16 17 16 24 21 18 19 19 14 12 9 8 9 9 9 8 6 7 9 17 13 8 10 7 8 12 33 27 25 36 43 44 47 50 51 52 53 54 55 56 57 58 59 60
44 45 45 46 44 44 42 38 40 42 43 43 44 43 39 32 21 15 7 9 24 24 34 33 25 28 27 27 23 22 22 20 18 20 22 22 22 23 23 21 22 16 17 16 16 15 15 17 18 15 20 16 14 12 10 9 8 7 7 8 6 11 8 8 11 13 4 7 12 10 29 32 22 29 42 46 48 50 51 51 52 54 54 55 57 58 59 60
44 45 46 45 46 46 39 35 39 43 43 44 42 38 32 19 22 11 11 33 17 28 28 27 27 28 28 30 29 25 21 21 21 21 20 20 21 21 21 19 19 13 13 14 14 15 13 15 17 14 25 14 14 10 9 7 8 7 8 8 9 9 5 3 5 5 5 4 9 12 28 32 27 30 41 45 47 49 51 51 52 53 54 56 57 58 60 60
45 45 47 46 46 46 44 41 43 44 44 45 39 37 27 19 11 16 16 25 17 29 27 31 29 29 29 29 28 29 26 20 21 19 21 20 20 20 21 20 19 18 13 15 14 14 15 13 16 13 15 17 14 11 8 7 5 6 6 8 7 5 5 4 6 9 11 14 14 16 32 27 29 28 37 44 46 49 50 51 52 54 54 56 57 58 60 60
45 46 43 44 45 46 46 45 43 44 43 43 37 31 26 17 13 25 22 25 23 33 33 31 31 29 29 27 27 28 24 24 24 20 20 19 19 20 19 18 18 16 21 17 13 13 12 11 11 13 12 13 13 13 9 9 7 5 6 6 10 9 7 1 7 3 4 8 12 15 25 22 22 25 36 42 46 48 51 52 54 55 56 57 58 59 60 60
45 44 42 42 44 46 46 46 45 45 42 39 33 27 19 17 22 22 23 27 29 31 30 32 30 28 27 28 29 28 26 24 25 23 18 18 19 19 19 17 18 17 21 14 17 14 11 15 15 14 15 12 11 12 10 7 7 6 5 7 7 7 18 6 14 10 11 6 8 17 20 20 20 35 46 44 48 52 53 54 55 55 57 58 58 59 60 60
43 41 42 40 44 45 46 46 45 43 39 36 29 23 20 23 20 28 27 32 32 29 29 29 29 25 27 25 29 26 27 26 22 22 19 18 19 18 18 18 17 17 17 16 18 13 12 14 13 13 13 12 11 12 10 7 8 8 5 5 5 13 11 13 10 22 14 11 8 15 23 32 34 37 45 48 48 52 53 54 54 55 57 58 58 59 59 60
41 41 39 41 42 45 46 46 44 41 40 35 27 21 26 28 29 30 33 31 32 32 30 23 21 18 21 16 24 25 26 25 22 19 21 18 19 17 17 18 18 17 17 21 17 21 12 16 20 13 12 11 12 11 10 7 12 4 5 5 10 15 17 11 6 13 9 8 12 17 22 27 28 26 40 47 49 52 53 53 54 55 57 57 58 58 59 59
41 40 42 43 44 44 46 44 42 40 38 32 26 28 33 28 34 32 35 34 34 33 28 24 25 29 26 24 24 26 30 24 22 18 21 17 19 19 17 17 17 17 18 18 17 20 18 10 11 13 12 11 12 10 9 7 8 4 5 10 4 7 3 13 17 7 4 2 3 10 14 23 28 29 43 46 48 51 52 53 54 55 56 57 57 58 59 59
39 39 36 38 41 44 43 43 43 40 34 29 26 26 31 32 35 35 35 36 35 32 28 29 26 25 28 27 29 29 29 24 21 18 16 17 16 19 17 16 16 17 17 17 17 22 23 14 13 13 12 10 10 9 10 7 8 12 7 5 10 14 17 8 13 17 12 5 4 9 14 22 28 39 45 46 48 51 52 53 53 55 56 57 57 58 58 59
39 34 33 40 42 43 43 42 41 37 32 26 27 29 34 32 34 36 38 38 33 31 30 29 31 27 29 26 31 28 30 25 24 20 16 19 16 21 16 17 16 16 17 17 17 23 17 22 11 12 11 9 8 10 9 8 7 5 6 5 8 13 16 12 19 11 12 10 9 9 5 15 21 37 46 47 48 50 52 52 53 55 56 57 58 58 58 59
40 36 36 42 42 42 41 39 34 31 30 32 33 30 33 32 35 35 36 38 37 36 33 31 31 28 23 27 29 30 31 29 22 18 14 16 16 14 16 16 16 15 16 16 15 21 15 18 17 19 8 8 9 10 9 9 7 6 9 11 6 6 9 5 11 15 17 12 8 7 8 18 23 40 47 47 49 51 52 52 53 55 56 57 58 58 59 59
37 31 34 43 42 41 38 33 33 36 33 31 30 33 31 37 34 34 35 37 35 34 36 33 34 32 27 22 27 31 32 30 27 21 15 16 18 17 18 16 16 15 15 17 15 19 20 26 22 12 12 8 9 10 13 10 7 6 5 6 7 8 15 11 8 11 12 17 17 17 11 14 29 36 46 48 50 51 52 53 53 55 56 57 58 58 59 59
35 33 38 41 44 39 36 32 33 30 29 32 34 34 37 34 33 34 35 35 35 36 36 34 34 33 31 30 34 33 32 29 29 25 19 14 21 15 16 15 15 14 13 17 15 16 26 16 13 12 12 13 12 12 13 10 5 4 6 11 8 8 15 15 18 20 15 14 8 7 4 17 30 39 42 47 49 50 50 52 53 55 56 58 58 58 59 59
36 36 37 41 44 41 34 27 27 29 31 31 32 32 37 35 35 35 34 35 35 35 35 35 29 35 32 36 34 32 34 25 28 23 22 22 22 20 15 14 14 13 12 20 13 32 16 22 17 14 10 11 13 9 9 9 9 16 13 14 8 12 12 23 23 21 10 16 19 11 4 11 30 43 44 46 49 50 51 52 54 55 56 58 58 58 59 59
37 39 38 38 40 37 31 31 30 30 30 30 30 30 34 35 37 38 36 35 36 37 35 33 31 36 36 36 33 34 35 31 29 29 34 27 29 25 14 13 14 14 13 26 39 25 20 25 19 14 11 9 9 9 10 8 9 15 18 9 11 11 14 15 8 13 8 14 18 13 11 20 31 42 45 48 49 50 51 52 54 56 57 58 58 58 58 59
30 27 31 32 33 33 33 32 33 32 30 30 29 31 34 32 36 39 38 36 38 36 38 34 36 36 36 30 32 30 34 34 30 30 36 35 34 25 15 13 13 13 25 28 33 27 23 31 24 20 14 15 16 19 20 19 11 7 9 9 9 13 19 21 21 13 11 16 14 21 27 34 38 40 45 47 49 50 51 53 54 55 57 58 58 58 58 58
34 29 31 29 32 32 30 31 30 31 30 31 29 33 32 32 34 35 40 36 36 35 36 37 36 36 36 33 31 32 36 35 34 34 36 37 37 35 37 20 12 19 27 34 31 29 27 19 23 23 18 15 15 11 15 10 9 12 10 12 13 16 20 18 15 12 21 14 7 23 33 35 37 40 44 46 48 49 51 53 54 55 57 57 58 57 56 58
27 30 35 35 30 28 29 30 31 31 32 31 33 34 32 32 33 32 35 37 37 37 33 34 35 36 36 36 35 30 35 35 36 33 37 37 36 37 25 15 15 28 39 19 34 22 23 17 22 25 22 20 16 9 10 7 9 12 13 17 17 20 18 16 18 25 20 8 17 25 35 35 38 41 44 47 49 50 51 52 54 56 57 57 57 57 57 58
35 35 34 36 29 31 32 32 33 32 30 31 33 33 31 32 32 34 35 35 34 34 36 31 33 35 36 38 36 33 35 30 29 35 37 36 36 36 32 18 21 22 19 22 22 33 24 20 25 28 24 25 23 11 12 9 16 12 14 19 20 20 19 22 22 28 21 19 26 34 36 36 39 42 44 46 47 49 51 52 54 55 56 57 57 57 57 57
31 31 31 34 34 32 32 32 31 30 29 32 31 32 32 32 32 34 36 36 32 31 35 34 35 35 37 38 38 33 36 36 36 32 37 36 34 36 35 32 31 32 24 20 25 25 22 18 30 29 21 23 26 20 14 13 11 14 16 20 21 24 22 25 27 29 35 36 35 36 37 37 42 45 48 49 50 52 52 53 53 55 56 56 57 56 57 57
37 38 38 32 30 31 33 31 30 30 29 32 30 32 32 33 33 35 35 38 36 34 35 35 36 37 38 36 35 37 39 39 38 36 37 37 33 37 34 34 37 36 32 23 27 28 29 18 31 28 22 16 24 26 23 22 16 17 18 22 20 18 17 20 22 30 31 35 37 37 36 37 42 48 49 49 50 51 51 52 53 55 56 56 56 56 56 57
38 38 38 36 29 33 30 30 30 30 30 31 32 32 32 33 34 37 32 38 38 39 38 37 37 38 37 35 34 36 38 39 40 39 38 38 38 38 39 39 38 37 34 24 27 24 27 24 21 22 20 15 25 28 19 19 15 10 11 17 24 23 24 25 25 34 34 39 35 33 37 40 47 48 49 47 48 49 50 52 53 55 56 56 56 56 56 56